DECAYED

STARLINK-2275, 48600 (Decayed)

Orbit data source: Space-Track

STARLINK-2275, 48600 was a payload satellite owned by SpaceX/Seattle (US) in LEO that was launched on Sat, 15 May 2021 UTC via an FALCON 9 launch vehicle from the Air Force Eastern Test Range (AFETR). Payload-class satellites include a variety of spacecraft equipped with specific instruments for various scientific and technological missions. These include communications satellites like Starlink; space stations such as the ISS; scientific satellites like the Hubble; Earth observation satellites from companies like Planet Labs, Umbra, and HawkEye 360; GPS; miniature CubeSats for education and research; and military/defense satellites.

Not visible in the next 10 days
Identifier
48600, 2021-041AZ
Orbit
Decayed
Country
Flag of USUS
Related business
Manufacturer
SpaceX/Seattle
Mission
Decayed Commercial Communications
Bus & Motor
STARLINK, Unknown motor
Mass
260 kg wet, ~248 kg dry
Launch date (UTC)
2021-05-15 (5 years ago)
Launch vehicle
FALCON 9
Launch site
Air Force Eastern Test Range (AFETR)
Object type
Payload
Rocket body
Debris
Shape & HBR
Box + 1 Pan, 10.1 m
Radar Cross Section
13.562 m², Large (>1 m²)

Expand to show TLE details & history
Last TLE update: 1 year ago

TLE from 1 year ago
0 STARLINK-2275
1 48600U 21041AZ  25147.38080934  .15877796  12506-4  27394-3 0  9996
2 48600  53.0319 314.5449 0009691 250.4934 191.6455 16.47151683223610
Epoch: 2025-05-27T09:08Z
TLE epoch observation values (Epoch: 2025-05-27T09:08:21.926Z)
Latitude
52.4767°
Longitude
9.29253°
Altitude
159.354 km
Speed
7.813 km/s
True Right ascension
02h 06m 15s
True Declination
52° 17' 43"
Sunlit
Object was in daylight at epoch
Visualization orbit readout
Latitude
Unknown
Longitude
Unknown
Altitude
Unknown
Speed
Unknown
Apparent Right ascension
Unknown
Apparent Declination
Unknown
Sunlit
N/A
Visualization observer readout
Local Sidereal Time
21:37:40
Azimuth
Unknown
Elevation
Unknown
Doppler factor
Unknown
Orbital elements
Apogee altitude
153.461 km
Perigee altitude
140.814 km
Semi-major axis
6,525.275 km
Eccentricity
0.00097
Inclination
53.0319°
RAAN
314.5449°
Arg. of periapsis
250.4934°
True anomaly
191.62311°
Mean anomaly
191.6455°
Eccentric anomaly
191.6343°
Mean motion
4.11761 °/min
Orbital period
87.43 mins
BSTAR
0.00027394
Loading maneuver chart data...
Computing Atmospheric mass density...
Loading historical data...
Loading historical data...
Loading historical data...
Loading historical data...
Loading historical data...
Loading historical data...
Loading historical data...

Documentation

Showing up to 5 results
|